When you browse on this site, cookies collect data to enhance your experience and personalize the content and advertising you see.
Visit our Privacy Policy to learn more. By continuing to use the site, you agree to this use of cookies and data.
  • En España
  • Lista de países
  • Para 7 días
  • Temperatura del agua
  • Mapa Satelital
  • El tiempo en el mapa
  • Informadores
  • user-avatar
    Iniciar sesión

    Tiempo cada hora Merzouga

    Hoy, 22 Enero, Martes

    Tiempo Temperatura Precipitaciones Viento Presión Humedad
    00:00 +10°C° 0 mm 7 mps 700 mmHg 41%
    01:00 +9°C° 0 mm 6 mps 701 mmHg 42%
    02:00 +8°C° 0 mm 5 mps 701 mmHg 43%
    03:00 +8°C° 0 mm 5 mps 701 mmHg 44%
    04:00 +7°C° 0 mm 4 mps 701 mmHg 44%
    05:00 +7°C° 0 mm 4 mps 701 mmHg 44%
    06:00 +7°C° 0 mm 3 mps 701 mmHg 44%
    07:00 +8°C° 0 mm 2 mps 702 mmHg 42%
    08:00 +8°C° 0 mm 2 mps 702 mmHg 40%
    09:00 +10°C° 0 mm 1 mps 702 mmHg 38%
    10:00 +10°C° 0 mm 2 mps 702 mmHg 37%
    11:00 +11°C° 0 mm 3 mps 702 mmHg 36%
    12:00 +12°C° 0 mm 4 mps 702 mmHg 34%
    13:00 +13°C° 0 mm 4 mps 701 mmHg 32%
    14:00 +14°C° 0 mm 4 mps 701 mmHg 29%
    15:00 +14°C° 0 mm 4 mps 700 mmHg 27%
    16:00 +14°C° 0 mm 4 mps 700 mmHg 28%
    17:00 +13°C° 0 mm 3 mps 700 mmHg 30%
    18:00 +14°C° 0 mm 2 mps 700 mmHg 31%
    19:00 +13°C° 0 mm 2 mps 700 mmHg 32%
    20:00 +13°C° 0 mm 2 mps 700 mmHg 34%
    21:00 +12°C° 0 mm 2 mps 700 mmHg 35%
    22:00 +10°C° 0 mm 2 mps 700 mmHg 36%
    23:00 +10°C° 0 mm 2 mps 700 mmHg 38%

    Mañana, 23 Enero, Miércoles

    Tiempo Temperatura Precipitaciones Viento Presión Humedad
    00:00 +10°C° 0 mm 1 mps 700 mmHg 39%
    01:00 +10°C° 0 mm 1 mps 700 mmHg 40%
    02:00 +9°C° 0 mm 1 mps 699 mmHg 41%
    03:00 +9°C° 0 mm 1 mps 699 mmHg 41%
    04:00 +9°C° 0 mm 1 mps 699 mmHg 42%
    05:00 +8°C° 0 mm 1 mps 699 mmHg 43%
    06:00 +8°C° 0 mm 1 mps 699 mmHg 43%
    07:00 +9°C° 0 mm 1 mps 699 mmHg 40%
    08:00 +10°C° 0 mm 1 mps 700 mmHg 36%
    09:00 +11°C° 0 mm 1 mps 700 mmHg 33%
    10:00 +12°C° 0 mm 2 mps 700 mmHg 30%
    11:00 +14°C° 0 mm 2 mps 700 mmHg 26%
    12:00 +15°C° 0 mm 2 mps 700 mmHg 23%
    13:00 +16°C° 0 mm 2 mps 699 mmHg 21%
    14:00 +17°C° 0 mm 2 mps 698 mmHg 19%
    15:00 +17°C° 0 mm 2 mps 698 mmHg 16%
    16:00 +16°C° 0 mm 2 mps 698 mmHg 18%
    17:00 +16°C° 0 mm 1 mps 698 mmHg 19%
    18:00 +15°C° 0 mm 1 mps 697 mmHg 21%
    19:00 +14°C° 0 mm 1 mps 697 mmHg 22%
    20:00 +12°C° 0 mm 0 mps 698 mmHg 24%
    21:00 +11°C° 0 mm 0 mps 698 mmHg 26%
    22:00 +11°C° 0 mm 0 mps 698 mmHg 26%
    23:00 +10°C° 0 mm 0 mps 697 mmHg 26%

    Pasado mañana, 24 Enero, Jueves

    Tiempo Temperatura Precipitaciones Viento Presión Humedad
    00:00 +10°C° 0 mm 0 mps 697 mmHg 27%
    01:00 +10°C° 0 mm 0 mps 697 mmHg 27%
    02:00 +9°C° 0 mm 0 mps 697 mmHg 28%
    03:00 +10°C° 0 mm 1 mps 697 mmHg 28%
    04:00 +10°C° 0 mm 1 mps 696 mmHg 29%
    05:00 +9°C° 0 mm 1 mps 696 mmHg 31%
    06:00 +9°C° 0 mm 1 mps 696 mmHg 32%
    07:00 +10°C° 0 mm 1 mps 696 mmHg 31%
    08:00 +11°C° 0 mm 1 mps 697 mmHg 30%
    09:00 +12°C° 0 mm 1 mps 698 mmHg 29%
    10:00 +13°C° 0 mm 1 mps 697 mmHg 27%
    11:00 +15°C° 0 mm 1 mps 697 mmHg 25%
    12:00 +16°C° 0 mm 1 mps 697 mmHg 23%
    13:00 +16°C° 0 mm 1 mps 697 mmHg 22%
    14:00 +18°C° 0 mm 1 mps 696 mmHg 21%
    15:00 +18°C° 0 mm 1 mps 696 mmHg 20%
    16:00 +18°C° 0 mm 1 mps 696 mmHg 22%
    17:00 +15°C° 0 mm 0 mps 696 mmHg 25%
    18:00 +14°C° 0 mm 0 mps 696 mmHg 27%
    19:00 +13°C° 0 mm 0 mps 697 mmHg 28%
    20:00 +13°C° 0 mm 0 mps 697 mmHg 29%
    21:00 +12°C° 0 mm 0 mps 698 mmHg 30%
    22:00 +13°C° 0 mm 1 mps 698 mmHg 31%
    23:00 +12°C° 0 mm 1 mps 698 mmHg 33%

    25 Enero, Viernes

    Tiempo Temperatura Precipitaciones Viento Presión Humedad
    00:00 +12°C° 0 mm 1 mps 698 mmHg 34%
    01:00 +11°C° 0 mm 1 mps 698 mmHg 37%
    02:00 +11°C° 0 mm 1 mps 697 mmHg 39%
    03:00 +10°C° 0 mm 1 mps 697 mmHg 41%
    04:00 +10°C° 0 mm 1 mps 697 mmHg 43%
    05:00 +10°C° 0 mm 1 mps 697 mmHg 45%
    06:00 +9°C° 0 mm 1 mps 697 mmHg 47%
    07:00 +10°C° 0 mm 1 mps 698 mmHg 45%
    08:00 +12°C° 0 mm 1 mps 699 mmHg 44%
    09:00 +13°C° 0 mm 1 mps 700 mmHg 42%
    10:00 +14°C° 0 mm 1 mps 700 mmHg 38%
    11:00 +15°C° 0 mm 1 mps 700 mmHg 34%
    12:00 +16°C° 0 mm 1 mps 701 mmHg 31%
    13:00 +18°C° 0 mm 1 mps 700 mmHg 29%
    14:00 +18°C° 0 mm 2 mps 700 mmHg 27%
    15:00 +18°C° 0 mm 2 mps 700 mmHg 24%
    16:00 +18°C° 0 mm 2 mps 699 mmHg 26%
    17:00 +18°C° 0 mm 1 mps 699 mmHg 29%
    18:00 +16°C° 0 mm 1 mps 699 mmHg 31%
    19:00 +15°C° 0 mm 1 mps 700 mmHg 32%
    20:00 +14°C° 0 mm 1 mps 700 mmHg 34%
    21:00 +14°C° 0 mm 1 mps 700 mmHg 36%
    22:00 +13°C° 0 mm 1 mps 700 mmHg 37%
    23:00 +13°C° 0 mm 1 mps 700 mmHg 38%

    26 Enero, Sábado

    Tiempo Temperatura Precipitaciones Viento Presión Humedad
    00:00 +12°C° 0 mm 1 mps 700 mmHg 40%
    01:00 +12°C° 0 mm 1 mps 700 mmHg 40%
    02:00 +12°C° 0 mm 1 mps 699 mmHg 41%
    03:00 +11°C° 0 mm 1 mps 699 mmHg 42%
    04:00 +11°C° 0 mm 1 mps 699 mmHg 43%
    05:00 +11°C° 0 mm 1 mps 699 mmHg 44%
    06:00 +11°C° 0 mm 1 mps 699 mmHg 44%
    07:00 +12°C° 0 mm 2 mps 700 mmHg 42%
    08:00 +13°C° 0 mm 2 mps 700 mmHg 39%
    09:00 +14°C° 0 mm 2 mps 701 mmHg 36%
    10:00 +14°C° 0 mm 3 mps 701 mmHg 33%
    11:00 +17°C° 0 mm 4 mps 701 mmHg 29%
    12:00 +17°C° 0 mm 5 mps 701 mmHg 25%
    13:00 +19°C° 0 mm 5 mps 700 mmHg 24%
    14:00 +20°C° 0 mm 5 mps 700 mmHg 22%
    15:00 +20°C° 0 mm 5 mps 699 mmHg 21%
    16:00 +19°C° 0 mm 4 mps 699 mmHg 22%
    17:00 +18°C° 0 mm 3 mps 698 mmHg 24%
    18:00 +17°C° 0 mm 2 mps 698 mmHg 26%
    19:00 +17°C° 0 mm 3 mps 698 mmHg 27%
    20:00 +16°C° 0 mm 3 mps 699 mmHg 28%
    21:00 +14°C° 0 mm 3 mps 699 mmHg 28%
    22:00 +14°C° 0 mm 3 mps 699 mmHg 29%
    23:00 +14°C° 0 mm 2 mps 698 mmHg 30%

    27 Enero, Domingo

    Tiempo Temperatura Precipitaciones Viento Presión Humedad
    00:00 +13°C° 0 mm 2 mps 698 mmHg 31%
    01:00 +13°C° 0 mm 2 mps 698 mmHg 32%
    02:00 +12°C° 0 mm 2 mps 697 mmHg 34%
    03:00 +11°C° 0 mm 1 mps 697 mmHg 35%
    04:00 +11°C° 0 mm 1 mps 696 mmHg 36%
    05:00 +10°C° 0 mm 1 mps 696 mmHg 37%
    06:00 +10°C° 0 mm 1 mps 696 mmHg 38%
    07:00 +11°C° 0 mm 1 mps 696 mmHg 35%
    08:00 +11°C° 0 mm 0 mps 697 mmHg 33%
    09:00 +13°C° 0 mm 0 mps 697 mmHg 30%
    10:00 +14°C° 0 mm 0 mps 697 mmHg 28%
    11:00 +16°C° 0 mm 0 mps 697 mmHg 25%
    12:00 +17°C° 0 mm 0 mps 697 mmHg 23%
    13:00 +18°C° 0 mm 0 mps 697 mmHg 22%
    14:00 +18°C° 0 mm 0 mps 696 mmHg 21%
    15:00 +19°C° 0 mm 0 mps 696 mmHg 20%
    16:00 +18°C° 0 mm 0 mps 696 mmHg 22%
    17:00 +17°C° 0 mm 0 mps 696 mmHg 24%
    18:00 +16°C° 0 mm 0 mps 695 mmHg 27%
    19:00 +16°C° 0 mm 1 mps 696 mmHg 27%
    20:00 +16°C° 0 mm 2 mps 696 mmHg 27%
    21:00 +15°C° 0 mm 2 mps 697 mmHg 28%
    22:00 +14°C° 0 mm 3 mps 697 mmHg 30%
    23:00 +13°C° 0 mm 3 mps 697 mmHg 32%
    Mostrar más